[[{"header":{"parameterUnit":"m.s-1","parameterCategory":1,"la1":30.2991,"la2":30.254,"lo1":-89.0895,"lo2":-89.0444,"dy":0.0017,"dx":0.0017,"nx":28,"ny":28,"refTime":"2025-03-09T03:00:00:Z","depth":0,"parameterNumber":2,"parameterNumberName":"U-component_of_WINDS"},"data":[0,0,0,0,0,0,0,0,0,0,0,0,0,0,0,0,0,0,0,0,0,0,0,0,0,0,0,0,0,0,0,0,0,0,0,0,0,0,0,0,0,0,0,0,0,0,0,0,0,0,0,0,0,0,0,0,0,0,-1.7643,-1.7642,0,-1.7551,-1.755,-1.7549,-1.7493,-1.7493,-1.7493,-1.7493,-1.74,-1.7398,-1.7396,0,0,0,0,0,0,0,0,0,0,0,0,0,-1.7775,-1.7773,-1.7643,-1.7642,-1.7641,-1.7551,-1.755,-1.7549,-1.7494,-1.7493,-1.7493,-1.7493,-1.7401,-1.7398,-1.7396,0,0,0,0,0,0,0,0,0,0,0,0,0,-1.7704,-1.7772,-1.7643,-1.7602,-1.7598,-1.7551,-1.755,-1.7548,-1.7494,-1.7493,-1.7493,-1.7492,-1.7402,-1.7398,-1.7395,-1.7383,0,0,-1.7385,-1.7384,0,0,0,0,0,0,0,0,-1.7708,-1.7699,-1.761,-1.7605,-1.76,-1.7533,-1.7562,-1.7493,-1.7494,-1.7533,-1.7493,-1.7492,-1.7445,-1.7438,-1.7422,-1.7378,-1.7374,-1.7385,-1.7383,-1.7381,-1.738,0,0,0,0,0,0,0,-1.7713,-1.7703,-1.7607,-1.7608,-1.7602,-1.759,-1.758,-1.7549,-1.7492,-1.753,-1.7525,-1.7515,-1.7442,-1.7425,-1.7419,-1.7373,-1.7385,-1.7382,-1.738,-1.7379,-1.7319,-1.732,0,0,0,0,0,0,-1.7724,-1.7707,-1.7609,-1.7604,-1.7654,-1.7588,-1.7576,-1.7555,-1.7493,-1.7483,-1.7516,-1.7513,-1.7431,-1.7423,-1.7416,-1.7399,-1.7381,-1.7378,-1.7376,-1.7319,-1.7319,-1.732,0,0,0,0,0,0,-1.7727,-1.7716,-1.7613,-1.7655,-1.764,-1.7586,-1.7563,-1.7553,-1.7536,-1.7482,-1.7472,-1.7508,-1.743,-1.742,-1.7392,-1.7395,-1.7377,-1.7374,-1.7318,-1.7319,-1.732,-1.7365,0,0,0,0,0,0,-1.7731,-1.7717,-1.7711,-1.7655,-1.7638,-1.759,-1.7563,-1.7552,-1.753,-1.7526,-1.7472,-1.7463,-1.7429,-1.7397,-1.7389,-1.739,-1.7371,-1.7318,-1.7319,-1.7319,-1.7363,-1.7367,-1.7371,0,0,0,0,0,-1.7736,-1.7726,-1.7711,-1.7699,-1.7629,-1.759,-1.7581,-1.7542,-1.7531,-1.7525,-1.7491,-1.7465,-1.7396,-1.7395,-1.7385,-1.7385,-1.7318,-1.7319,-1.7319,-1.7361,-1.7366,-1.7371,0,0,0,0,0,0,-1.7783,-1.7718,-1.77,-1.7671,-1.7637,-1.7581,-1.7571,-1.7548,-1.7515,-1.7513,-1.7466,-1.7455,-1.7432,-1.7406,-1.7405,-1.7372,-1.7354,-1.7353,-1.739,-1.7394,-1.7398,-1.7405,-1.7368,0,0,0,0,0,-1.7791,-1.7764,-1.7709,-1.7689,-1.7673,-1.7626,-1.7607,-1.758,-1.7543,-1.7528,-1.7491,-1.7457,-1.7428,-1.7409,-1.7379,-1.736,-1.7349,-1.7355,-1.7359,-1.7363,-1.7362,-1.7353,-1.7356,-1.7323,-1.7323,-1.7323,0,0,-1.7805,-1.7766,-1.7751,-1.7698,-1.7667,-1.7643,-1.7613,-1.7587,-1.7569,-1.7524,-1.7495,-1.7468,-1.7427,-1.7404,-1.7392,-1.7381,-1.737,-1.7364,-1.7367,-1.7365,-1.7355,-1.7358,-1.7361,-1.7324,-1.7324,-1.7323,0,0,-1.7818,-1.7785,-1.7767,-1.7738,-1.7694,-1.7663,-1.7659,-1.7608,-1.7588,-1.7559,-1.7526,-1.7504,-1.7454,-1.7427,-1.7407,-1.7416,-1.7392,-1.7408,-1.7427,-1.7419,-1.7422,-1.7424,-1.7429,-1.7432,-1.7407,-1.7408,-1.7408,0,-1.7841,-1.7801,-1.776,-1.7737,-1.7716,-1.7675,-1.7658,-1.7632,-1.7581,-1.7568,-1.7557,-1.7497,-1.7465,-1.7437,-1.744,-1.7424,-1.742,-1.7413,-1.7425,-1.7426,-1.7428,-1.7433,-1.7434,-1.741,-1.741,-1.7409,-1.7409,0,-1.7833,-1.7806,-1.7797,-1.7749,-1.7727,-1.7707,-1.7665,-1.7648,-1.7625,-1.7596,-1.7569,-1.7532,-1.7495,-1.7486,-1.7462,-1.7456,-1.7451,-1.7433,-1.7414,-1.7434,-1.7438,-1.7439,-1.7413,-1.7412,-1.7412,-1.7411,0,0,-1.7869,-1.7803,-1.78,-1.778,-1.7731,-1.771,-1.769,-1.7655,-1.7642,-1.7609,-1.7592,-1.7554,-1.7538,-1.7515,-1.7489,-1.7481,-1.7494,-1.7465,-1.7463,-1.7473,-1.7488,-1.7503,-1.7505,-1.7479,-1.7479,-1.7479,-1.7492,0,-1.7876,-1.7837,-1.7802,-1.7777,-1.7753,-1.7717,-1.77,-1.767,-1.7644,-1.7621,-1.7593,-1.7567,-1.7547,-1.7534,-1.7525,-1.7495,-1.7497,-1.7493,-1.7465,-1.7464,-1.7476,-1.7506,-1.752,-1.7535,-1.7493,-1.7494,-1.7494,0,-1.7877,-1.7848,-1.782,-1.7777,-1.7766,-1.7751,-1.7718,-1.7697,-1.7663,-1.7645,-1.7622,-1.7595,-1.7575,-1.7559,-1.7532,-1.753,-1.7517,-1.7501,-1.7501,-1.7497,-1.748,-1.7505,-1.7538,-1.7541,-1.7495,-1.7495,-1.7495,0,-1.7909,-1.7863,-1.7841,-1.7824,-1.7773,-1.7764,-1.7742,-1.7708,-1.769,-1.7662,-1.7651,-1.7621,-1.7605,-1.7583,-1.755,-1.7541,-1.7528,-1.7509,-1.7514,-1.7515,-1.7512,-1.7513,-1.7545,-1.7503,-1.7503,-1.7503,-1.7503,0,-1.792,-1.7905,-1.7855,-1.7842,-1.7825,-1.7787,-1.7772,-1.7748,-1.7718,-1.7701,-1.7668,-1.7653,-1.761,-1.7591,-1.7565,-1.7548,-1.7541,-1.7527,-1.752,-1.753,-1.7532,-1.7521,-1.7519,-1.7503,-1.7503,-1.7503,-1.7503,0,-1.7952,-1.7917,-1.7892,-1.7847,-1.7836,-1.7826,-1.7788,-1.7775,-1.7749,-1.7728,-1.7721,-1.7681,-1.7657,-1.7622,-1.7586,-1.757,-1.7558,-1.7546,-1.7569,-1.7565,-1.7573,-1.7574,-1.76,-1.7602,-1.7558,-1.7558,-1.7559,0,-1.7961,-1.7949,-1.7904,-1.7891,-1.7871,-1.7849,-1.7832,-1.7796,-1.778,-1.7743,-1.7735,-1.7709,-1.7686,-1.765,-1.7618,-1.7592,-1.7581,-1.7592,-1.7576,-1.7588,-1.7583,-1.7584,-1.7584,-1.7595,-1.7596,-1.7597,-1.7597,0,-1.7982,-1.7967,-1.7943,-1.7915,-1.7896,-1.7872,-1.7846,-1.7838,-1.7797,-1.7781,-1.7756,-1.7739,-1.7705,-1.7681,-1.7651,-1.7631,-1.7608,-1.7603,-1.7603,-1.7613,-1.7627,-1.7622,-1.758,-1.7602,-1.7601,-1.7601,-1.7601,-1.76,-1.8003,-1.7992,-1.796,-1.7936,-1.7914,-1.7893,-1.7879,-1.7853,-1.7832,-1.7802,-1.7783,-1.7761,-1.7731,-1.769,-1.7671,-1.7654,-1.7644,-1.7644,-1.7644,-1.7645,-1.7649,-1.763,-1.7649,-1.7648,-1.7648,-1.7648,-1.7648,0,-1.8023,-1.8002,-1.7981,-1.7948,-1.793,-1.7912,-1.7884,-1.7871,-1.7852,-1.7826,-1.7805,-1.778,-1.7757,-1.7725,-1.7701,-1.7694,-1.7683,-1.7689,-1.7689,-1.7686,-1.7658,-1.7662,-1.7698,-1.7698,-1.7698,-1.7698,-1.7698,-1.7698,-1.8031,-1.8013,-1.7996,-1.7968,-1.7947,-1.7925,-1.7912,-1.7893,-1.7873,-1.7846,-1.7827,-1.7807,-1.778,-1.7754,-1.7734,-1.7725,-1.7719,-1.7728,-1.7716,-1.7692,-1.7687,-1.7682,-1.7685,-1.7726,-1.7726,-1.7745,-1.7745,-1.7745]},{"header":{"parameterUnit":"m.s-1","parameterCategory":1,"la1":30.2991,"la2":30.254,"lo1":-89.0895,"lo2":-89.0444,"dy":0.0017,"dx":0.0017,"nx":28,"ny":28,"refTime":"2025-03-09T03:00:00:Z","depth":0,"parameterNumber":3,"parameterNumberName":"V-component_of_WINDS"},"data":[0,0,0,0,0,0,0,0,0,0,0,0,0,0,0,0,0,0,0,0,0,0,0,0,0,0,0,0,0,0,0,0,0,0,0,0,0,0,0,0,0,0,0,0,0,0,0,0,0,0,0,0,0,0,0,0,0,0,3.129,3.129,0,3.1284,3.1284,3.1284,3.1266,3.1265,3.1265,3.1265,3.1255,3.1255,3.1255,0,0,0,0,0,0,0,0,0,0,0,0,0,3.1286,3.1286,3.129,3.129,3.129,3.1284,3.1284,3.1284,3.1266,3.1265,3.1265,3.1264,3.1255,3.1255,3.1255,0,0,0,0,0,0,0,0,0,0,0,0,0,3.1284,3.1286,3.1291,3.1281,3.128,3.1284,3.1284,3.1284,3.1266,3.1265,3.1265,3.1264,3.1255,3.1255,3.1255,3.1267,0,0,3.1256,3.1256,0,0,0,0,0,0,0,0,3.1285,3.1285,3.1282,3.1281,3.128,3.1275,3.1279,3.1278,3.1266,3.1271,3.1265,3.1264,3.1262,3.1261,3.1261,3.1267,3.1267,3.1256,3.1256,3.1256,3.1256,0,0,0,0,0,0,0,3.1285,3.1285,3.1288,3.1282,3.1281,3.1276,3.1275,3.1279,3.127,3.1271,3.1269,3.1269,3.1261,3.1261,3.1261,3.1266,3.1256,3.1256,3.1256,3.1256,3.1283,3.1283,0,0,0,0,0,0,3.1286,3.1285,3.1288,3.1288,3.1281,3.1277,3.1276,3.1277,3.127,3.1268,3.1269,3.1268,3.1261,3.1261,3.1261,3.1275,3.1256,3.1256,3.1256,3.1282,3.1283,3.1284,0,0,0,0,0,0,3.1286,3.1287,3.1288,3.1286,3.1286,3.1277,3.1279,3.1278,3.1277,3.1269,3.1267,3.1271,3.1261,3.126,3.1266,3.1274,3.1256,3.1256,3.1281,3.1282,3.1283,3.1303,0,0,0,0,0,0,3.1286,3.1287,3.1292,3.1286,3.1286,3.1294,3.128,3.1278,3.1278,3.1276,3.127,3.1268,3.126,3.1266,3.1266,3.1274,3.1256,3.1281,3.1282,3.1283,3.1301,3.1304,3.1307,0,0,0,0,0,3.1286,3.1297,3.1292,3.1292,3.1292,3.1295,3.1295,3.1286,3.1279,3.1283,3.1278,3.1268,3.1274,3.1267,3.1267,3.1275,3.128,3.1282,3.1283,3.13,3.1304,3.1307,0,0,0,0,0,0,3.1301,3.1295,3.129,3.1299,3.1298,3.1292,3.1297,3.129,3.129,3.1288,3.1277,3.1276,3.1283,3.128,3.1272,3.1287,3.1275,3.1277,3.1288,3.1292,3.1294,3.1294,3.1256,0,0,0,0,0,3.1306,3.131,3.1304,3.1313,3.1313,3.1305,3.1306,3.13,3.1298,3.1297,3.1292,3.1289,3.129,3.1291,3.1292,3.1302,3.13,3.1307,3.131,3.1312,3.1313,3.1318,3.1321,3.1288,3.1288,3.1288,0,0,3.1315,3.1312,3.1315,3.1316,3.1314,3.1318,3.1305,3.1309,3.1311,3.1297,3.1302,3.1299,3.1296,3.1304,3.1307,3.1301,3.1322,3.1314,3.1316,3.1315,3.132,3.1323,3.1326,3.1289,3.1289,3.1289,0,0,3.1333,3.1332,3.1339,3.1338,3.1336,3.1332,3.1334,3.1329,3.1327,3.1333,3.1323,3.1325,3.1327,3.1325,3.1325,3.1345,3.1336,3.1346,3.1359,3.1364,3.1367,3.1369,3.1376,3.1378,3.1347,3.1347,3.1347,0,3.1344,3.135,3.1343,3.1348,3.1349,3.1339,3.1346,3.1345,3.1343,3.1343,3.1337,3.1341,3.1338,3.1345,3.1351,3.1351,3.1352,3.1345,3.1367,3.1369,3.1371,3.1377,3.138,3.1348,3.1348,3.1348,3.1348,0,3.1363,3.1367,3.1373,3.1373,3.1375,3.1381,3.1375,3.1377,3.1372,3.1368,3.1375,3.1371,3.1371,3.1373,3.1367,3.138,3.1377,3.1369,3.1357,3.1376,3.1381,3.1383,3.135,3.1349,3.1349,3.1349,0,0,3.1387,3.1386,3.1388,3.1388,3.1387,3.139,3.1396,3.1397,3.1399,3.1399,3.1403,3.1407,3.1401,3.14,3.1394,3.1399,3.1415,3.1391,3.1391,3.1395,3.1429,3.1434,3.1436,3.1411,3.1411,3.1411,3.1429,0,3.1404,3.1414,3.141,3.1421,3.1425,3.1416,3.1422,3.1421,3.1419,3.1421,3.1418,3.142,3.1412,3.1412,3.1417,3.1412,3.1422,3.1411,3.1413,3.1413,3.1412,3.1439,3.1444,3.1461,3.1431,3.1432,3.1432,0,3.1424,3.1426,3.1437,3.1437,3.1438,3.1443,3.1444,3.1447,3.1447,3.1445,3.1446,3.1439,3.1445,3.1435,3.1443,3.1436,3.1437,3.1435,3.1436,3.1434,3.1422,3.1437,3.1466,3.1468,3.1435,3.1435,3.1435,0,3.1439,3.1445,3.1453,3.1454,3.1453,3.1457,3.1457,3.1456,3.1458,3.1459,3.146,3.1462,3.1462,3.1464,3.1458,3.1452,3.1466,3.1456,3.1464,3.1464,3.1465,3.1465,3.1493,3.1469,3.1469,3.1469,3.1469,0,3.1457,3.1464,3.1461,3.1465,3.1473,3.1468,3.1476,3.1475,3.1475,3.1479,3.1472,3.1476,3.1469,3.1473,3.1468,3.1475,3.1476,3.1473,3.1472,3.1473,3.1473,3.1472,3.147,3.1469,3.1469,3.1469,3.1469,0,3.1475,3.1473,3.1481,3.1481,3.1481,3.1487,3.1486,3.149,3.1488,3.1493,3.1494,3.1491,3.1494,3.149,3.1492,3.149,3.1499,3.1496,3.1499,3.1497,3.1505,3.1504,3.1532,3.1535,3.151,3.1511,3.1511,0,3.1486,3.1491,3.1492,3.1495,3.1496,3.15,3.1502,3.1499,3.1501,3.1502,3.1506,3.151,3.1512,3.1518,3.1515,3.1517,3.1514,3.1524,3.1514,3.1515,3.1512,3.1512,3.1512,3.1525,3.1525,3.1525,3.1526,0,3.1504,3.1504,3.1507,3.1512,3.1515,3.1517,3.1519,3.1522,3.1518,3.1521,3.1526,3.1528,3.1532,3.1535,3.1537,3.1536,3.153,3.1529,3.1531,3.1531,3.1532,3.1531,3.1503,3.1528,3.1528,3.1527,3.1527,3.1527,3.1518,3.1523,3.1525,3.153,3.1531,3.1534,3.1538,3.1538,3.1541,3.1545,3.1543,3.1548,3.1548,3.1551,3.1551,3.1554,3.155,3.1553,3.1553,3.1553,3.1554,3.1534,3.1555,3.1555,3.1555,3.1555,3.1555,0,3.1536,3.1537,3.1542,3.1546,3.155,3.1546,3.1549,3.1552,3.1557,3.1559,3.1562,3.1567,3.1571,3.1569,3.1572,3.1576,3.1573,3.1576,3.1575,3.1575,3.1558,3.1556,3.1578,3.1578,3.1578,3.1578,3.1578,3.1578,3.1545,3.1553,3.1553,3.1562,3.1564,3.1569,3.1571,3.1573,3.1575,3.1581,3.1585,3.1585,3.1585,3.1589,3.1592,3.1591,3.1592,3.1596,3.1595,3.1578,3.1576,3.1574,3.1571,3.1597,3.1597,3.1611,3.1611,3.1611]}]]